When you browse on this site, cookies collect data to enhance your experience and personalize the content and advertising you see.
Visit our Privacy Policy to learn more. By continuing to use the site, you agree to this use of cookies and data.

Hourly Weather Tottori

Today, 12 August, Wednesday

Time Temperature Precipitation Wind Pressure Humidity
00:00 +25°C° 0 mm 1 mps 731 mmHg 95%
01:00 +25°C° 0.1 mm 1 mps 731 mmHg 95%
02:00 +25°C° 0.1 mm 1 mps 730 mmHg 95%
03:00 +25°C° 0 mm 1 mps 730 mmHg 94%
04:00 +25°C° 0.1 mm 1 mps 731 mmHg 94%
05:00 +25°C° 0.1 mm 1 mps 731 mmHg 93%
06:00 +25°C° 0.1 mm 1 mps 731 mmHg 93%
07:00 +26°C° 0 mm 1 mps 731 mmHg 88%
08:00 +28°C° 0 mm 2 mps 731 mmHg 83%
09:00 +29°C° 0 mm 2 mps 731 mmHg 78%
10:00 +30°C° 0.8 mm 2 mps 731 mmHg 79%
11:00 +30°C° 0.8 mm 2 mps 731 mmHg 79%
12:00 +31°C° 0.8 mm 2 mps 731 mmHg 80%
13:00 +30°C° 2.3 mm 1 mps 730 mmHg 82%
14:00 +30°C° 2.3 mm 1 mps 730 mmHg 84%
15:00 +30°C° 0 mm 1 mps 730 mmHg 85%
16:00 +30°C° 0.2 mm 1 mps 730 mmHg 85%
17:00 +29°C° 0.2 mm 1 mps 730 mmHg 85%
18:00 +29°C° 0.2 mm 1 mps 730 mmHg 85%
19:00 +28°C° 0.3 mm 1 mps 730 mmHg 88%
20:00 +27°C° 0.3 mm 1 mps 730 mmHg 90%
21:00 +26°C° 0.3 mm 1 mps 730 mmHg 92%
22:00 +26°C° 0 mm 1 mps 730 mmHg 92%
23:00 +26°C° 0 mm 1 mps 730 mmHg 92%

Tomorrow, 13 August, Thursday

Time Temperature Precipitation Wind Pressure Humidity
00:00 +25°C° 0 mm 1 mps 730 mmHg 93%
01:00 +25°C° 0.4 mm 1 mps 729 mmHg 93%
02:00 +25°C° 0.4 mm 1 mps 729 mmHg 93%
03:00 +25°C° 0.4 mm 1 mps 729 mmHg 94%
04:00 +25°C° 0.3 mm 1 mps 729 mmHg 94%
05:00 +25°C° 0.3 mm 1 mps 729 mmHg 94%
06:00 +25°C° 0.3 mm 1 mps 729 mmHg 94%
07:00 +27°C° 0.2 mm 1 mps 729 mmHg 89%
08:00 +28°C° 0.2 mm 1 mps 729 mmHg 84%
09:00 +30°C° 0.2 mm 1 mps 729 mmHg 79%
10:00 +31°C° 0.1 mm 1 mps 729 mmHg 75%
11:00 +32°C° 0.1 mm 1 mps 729 mmHg 70%
12:00 +34°C° 0.1 mm 2 mps 729 mmHg 65%
13:00 +34°C° 0.4 mm 2 mps 728 mmHg 67%
14:00 +34°C° 0.4 mm 2 mps 728 mmHg 70%
15:00 +34°C° 0.4 mm 2 mps 727 mmHg 72%
16:00 +32°C° 0.3 mm 2 mps 727 mmHg 77%
17:00 +31°C° 0.3 mm 1 mps 727 mmHg 83%
18:00 +30°C° 0.3 mm 1 mps 727 mmHg 88%
19:00 +28°C° 0 mm 1 mps 727 mmHg 90%
20:00 +27°C° 0 mm 1 mps 727 mmHg 92%
21:00 +24°C° 0 mm 0 mps 727 mmHg 94%
22:00 +24°C° 0 mm 0 mps 727 mmHg 93%
23:00 +24°C° 0 mm 0 mps 727 mmHg 93%

Day after tomorrow, 14 August, Friday

Time Temperature Precipitation Wind Pressure Humidity
00:00 +23°C° 0 mm 0 mps 727 mmHg 92%
01:00 +25°C° 0 mm 1 mps 727 mmHg 92%
02:00 +25°C° 0 mm 1 mps 726 mmHg 92%
03:00 +25°C° 0 mm 1 mps 726 mmHg 92%
04:00 +25°C° 0 mm 1 mps 726 mmHg 91%
05:00 +25°C° 0 mm 1 mps 726 mmHg 91%
06:00 +25°C° 0 mm 1 mps 726 mmHg 90%
07:00 +27°C° 0 mm 1 mps 726 mmHg 82%
08:00 +29°C° 0 mm 1 mps 727 mmHg 74%
09:00 +32°C° 0 mm 1 mps 727 mmHg 66%
10:00 +33°C° 0 mm 1 mps 727 mmHg 60%
11:00 +35°C° 0 mm 2 mps 727 mmHg 53%
12:00 +36°C° 0 mm 2 mps 727 mmHg 47%
13:00 +36°C° 0 mm 2 mps 727 mmHg 47%
14:00 +37°C° 0 mm 2 mps 726 mmHg 47%
15:00 +37°C° 0 mm 2 mps 726 mmHg 48%
16:00 +35°C° 0 mm 2 mps 726 mmHg 56%
17:00 +33°C° 0 mm 1 mps 726 mmHg 64%
18:00 +31°C° 0 mm 1 mps 726 mmHg 73%
19:00 +30°C° 0 mm 1 mps 726 mmHg 73%
20:00 +28°C° 0 mm 1 mps 726 mmHg 73%
21:00 +27°C° 0 mm 1 mps 726 mmHg 73%
22:00 +27°C° 0 mm 1 mps 726 mmHg 74%
23:00 +26°C° 0 mm 1 mps 726 mmHg 75%

15 August, Saturday

Time Temperature Precipitation Wind Pressure Humidity
00:00 +26°C° 0 mm 1 mps 726 mmHg 76%
01:00 +26°C° 0 mm 1 mps 726 mmHg 78%
02:00 +26°C° 0 mm 1 mps 726 mmHg 80%
03:00 +25°C° 0 mm 1 mps 726 mmHg 82%
04:00 +25°C° 0 mm 1 mps 726 mmHg 81%
05:00 +25°C° 0 mm 1 mps 726 mmHg 80%
06:00 +25°C° 0 mm 1 mps 727 mmHg 79%
07:00 +28°C° 0 mm 1 mps 727 mmHg 70%
08:00 +30°C° 0 mm 1 mps 727 mmHg 61%
09:00 +32°C° 0 mm 1 mps 727 mmHg 53%
10:00 +33°C° 0 mm 1 mps 727 mmHg 49%
11:00 +35°C° 0 mm 2 mps 728 mmHg 46%
12:00 +36°C° 0 mm 3 mps 728 mmHg 43%
13:00 +36°C° 0 mm 3 mps 727 mmHg 44%
14:00 +36°C° 0 mm 3 mps 727 mmHg 45%
15:00 +36°C° 0 mm 3 mps 727 mmHg 46%
16:00 +34°C° 0 mm 2 mps 727 mmHg 56%
17:00 +32°C° 0 mm 2 mps 727 mmHg 65%
18:00 +30°C° 0 mm 1 mps 727 mmHg 74%
19:00 +29°C° 0 mm 1 mps 727 mmHg 77%
20:00 +27°C° 0 mm 1 mps 727 mmHg 80%
21:00 +26°C° 0 mm 1 mps 727 mmHg 83%
22:00 +26°C° 0 mm 1 mps 727 mmHg 81%
23:00 +23°C° 0 mm 0 mps 727 mmHg 79%

16 August, Sunday

Time Temperature Precipitation Wind Pressure Humidity
00:00 +23°C° 0 mm 0 mps 727 mmHg 76%
01:00 +23°C° 0 mm 0 mps 727 mmHg 76%
02:00 +25°C° 0 mm 1 mps 727 mmHg 75%
03:00 +24°C° 0 mm 1 mps 727 mmHg 74%
04:00 +24°C° 0 mm 1 mps 727 mmHg 75%
05:00 +24°C° 0 mm 1 mps 727 mmHg 75%
06:00 +24°C° 0 mm 1 mps 727 mmHg 75%
07:00 +25°C° 0 mm 0 mps 727 mmHg 68%
08:00 +27°C° 0 mm 0 mps 728 mmHg 61%
09:00 +30°C° 0 mm 0 mps 728 mmHg 54%
10:00 +33°C° 0 mm 1 mps 728 mmHg 52%
11:00 +34°C° 0 mm 2 mps 728 mmHg 49%
12:00 +35°C° 0 mm 3 mps 728 mmHg 47%
13:00 +35°C° 0 mm 3 mps 728 mmHg 52%
14:00 +34°C° 0 mm 3 mps 728 mmHg 57%
15:00 +33°C° 0 mm 4 mps 728 mmHg 62%
16:00 +31°C° 0 mm 3 mps 727 mmHg 69%
17:00 +30°C° 0 mm 2 mps 727 mmHg 77%
18:00 +28°C° 0 mm 2 mps 727 mmHg 84%
19:00 +27°C° 0 mm 1 mps 727 mmHg 88%
20:00 +26°C° 0 mm 1 mps 728 mmHg 92%
21:00 +25°C° 0 mm 1 mps 728 mmHg 96%
22:00 +25°C° 0 mm 1 mps 728 mmHg 94%
23:00 +25°C° 0 mm 1 mps 728 mmHg 92%

17 August, Monday

Time Temperature Precipitation Wind Pressure Humidity
00:00 +22°C° 0 mm 0 mps 728 mmHg 90%
01:00 +24°C° 0 mm 1 mps 728 mmHg 91%
02:00 +24°C° 0 mm 1 mps 727 mmHg 91%
03:00 +24°C° 0 mm 1 mps 727 mmHg 92%
04:00 +24°C° 0 mm 1 mps 728 mmHg 93%
05:00 +24°C° 0 mm 1 mps 728 mmHg 93%
06:00 +24°C° 0 mm 1 mps 728 mmHg 94%
07:00 +26°C° 0 mm 1 mps 728 mmHg 85%
08:00 +28°C° 0 mm 1 mps 729 mmHg 77%
09:00 +30°C° 0 mm 1 mps 729 mmHg 68%
10:00 +31°C° 0 mm 1 mps 729 mmHg 65%
11:00 +32°C° 0 mm 2 mps 729 mmHg 62%
12:00 +32°C° 0 mm 2 mps 729 mmHg 59%
13:00 +32°C° 0 mm 2 mps 729 mmHg 60%
14:00 +32°C° 0 mm 2 mps 728 mmHg 60%
15:00 +32°C° 0 mm 2 mps 728 mmHg 61%
16:00 +31°C° 0 mm 2 mps 728 mmHg 67%
17:00 +29°C° 0 mm 2 mps 728 mmHg 74%
18:00 +28°C° 0 mm 2 mps 728 mmHg 80%
19:00 +27°C° 0 mm 1 mps 728 mmHg 84%
20:00 +26°C° 0 mm 1 mps 728 mmHg 88%
21:00 +24°C° 0 mm 1 mps 728 mmHg 92%
22:00 +24°C° 0 mm 1 mps 728 mmHg 90%
23:00 +22°C° 0 mm 0 mps 728 mmHg 89%
Show more